OBJECT A, 56153

Orbit data source: Space-Track

You're viewing an Uncataloged Satellite

Recently launched and/or uncataloged satellites may have evolving metadata. Metadata may include but not limited to: Owner, Maufacturer, Bus, Motor, and Mission.

OBJECT A, 56153 is a satellite owned by Hangtian Hongtu (CN) in SSO that was launched on Thu, 30 Mar 2023 UTC via a CHANG ZHENG 2D launch vehicle from the Taiyaun Space Center, China (TSC). Unknown objects in Earth's orbit typically refer to objects detected orbiting the Earth but have not yet been identified or cataloged. These objects could be anything from previously untracked satellites, spent rocket stages, debris from satellite collisions, or even natural meteoroids temporarily captured by Earth's gravity.

Loading next visibility...
Identifier
56153, 2023-047A
Orbit
SSO
Country
Flag of CNCN / PRC
Related business
Manufacturer
Yinhe
Mission
Operational Commercial Radar Imaging
Bus & Motor
PIESAT, Unknown motor
Mass
320 kg wet, 320 kg dry
Launch date (UTC)
2023-03-30 (3 years ago)
Launch vehicle
CHANG ZHENG 2D
Launch site
Taiyaun Space Center, China (TSC)
Object type
Unknown
Shape & HBR
Box + 2 Pan, 2.0 m
Radar Cross Section
2.315 m², Large (>1 m²)

Expand to show TLE details & history
Last TLE update: 3 days ago

TLE from 3 days ago
0 OBJECT A
1 56153U 23047A   26170.46762789  .00002350  00000-0  13198-3 0  9996
2 56153  97.5017 357.5754 0001717  96.3497 263.7930 15.14292334178146
Epoch: 2026-06-19T11:13Z
TLE epoch observation values (Epoch: 2026-06-19T11:13:23.049Z)
Latitude
-0.00007°
Longitude
-78.46681°
Altitude
526.336 km
Speed
7.6 km/s
True Right ascension
23h 50m 18s
True Declination
0° 00' 00"
Sunlit
Object was in daylight at epoch
Visualization orbit readout
Latitude
Unknown
Longitude
Unknown
Altitude
Unknown
Speed
Unknown
Apparent Right ascension
Unknown
Apparent Declination
Unknown
Sunlit
N/A
Visualization observer readout
Local Sidereal Time
23:19:40
Azimuth
Unknown
Elevation
Unknown
Doppler factor
Unknown
Orbital elements
Apogee altitude
521.29 km
Perigee altitude
518.921 km
Semi-major axis
6,898.242 km
Eccentricity
0.00017
Inclination
97.5017°
RAAN
357.5754°
Arg. of periapsis
96.3497°
True anomaly
263.77344°
Mean anomaly
263.793°
Eccentric anomaly
263.78322°
Mean motion
3.78822 °/min
Orbital period
95.03 mins
BSTAR
0.00013198
Loading maneuver chart data...
Computing Atmospheric mass density...
Loading historical data...
Loading historical data...
Loading historical data...
Loading historical data...
Loading historical data...
Loading historical data...
Loading historical data...
Other satellites on launch #47 in the year 2023 (2023-03-30 UTC)

Documentation

Showing up to 5 results
|